FW7562 Weather Reports


time (UTC)temp
F
wind
direction
speed
knots
gust
knots
rain 1hr
in
rain 24hr
in
rain mn
in
humidity
%
barometer
mb
20260505034516 61 168 4.3 9.6 0.00 0.00 0.00 53 1008.2
20260505033018 61 166 5.2 8.7 0.00 0.00 0.00 53 1008.5
20260505031516 62 158 5.2 11.3 0.00 0.00 0.00 52 1008.5
20260505030014 62 133 6.1 10.4 0.00 0.00 0.00 51 1008.3
20260505024513 62 147 4.3 10.4 0.00 0.00 0.00 51 1008.4
20260505023013 62 160 5.2 12.2 0.00 0.00 0.00 50 1008.8
20260505021513 63 121 5.2 10.4 0.00 0.00 0.00 49 1008.8
20260505020012 63 188 5.2 11.3 0.00 0.00 0.00 48 1008.6
20260505014520 63 146 4.3 9.6 0.00 0.00 0.00 48 1008.5
20260505013010 63 144 4.3 12.2 0.00 0.00 0.00 47 1008.6
20260505011510 64 151 4.3 7.0 0.00 0.00 0.00 47 1008.4
20260505010009 63 130 3.5 7.8 0.00 0.00 0.00 47 1008.2
20260505004509 64 157 3.5 8.7 0.00 0.00 0.00 47 1008.4
20260505003008 64 163 4.3 8.7 0.00 0.00 0.00 46 1008.3
20260505001508 65 139 4.3 9.6 0.00 0.00 0.00 45 1008.0
20260505000010 65 110 3.5 7.8 0.00 0.00 0.00 44 1008.0
20260504234506 66 148 4.3 8.7 0.00 0.00 0.00 43 1008.1
20260504233006 66 185 3.5 11.3 0.00 0.00 0.00 43 1007.8
20260504231505 67 150 5.2 12.2 0.00 0.00 0.00 41 1007.9
20260504230004 68 159 2.6 7.0 0.00 0.00 0.00 40 1007.9
20260504224510 68 147 3.5 7.8 0.00 0.00 0.00 40 1007.8
20260504223003 68 183 3.5 8.7 0.00 0.00 0.00 39 1007.9
20260504221502 68 145 3.5 9.6 0.00 0.00 0.00 39 1008.0
20260504220003 69 169 3.5 7.8 0.00 0.00 0.00 37 1007.9
20260504214600 69 156 4.3 7.8 0.00 0.00 0.00 38 1008.0
20260504213109 70 233 2.6 7.0 0.00 0.00 0.00 34 1008.0
20260504211651 69 153 2.6 9.6 0.00 0.00 0.00 37 1008.0
20260504210056 69 152 3.5 7.8 0.00 0.00 0.00 37 1008.2
20260504204601 69 167 4.3 7.8 0.00 0.00 0.00 37 1008.5
20260504203057 70 105 3.5 7.8 0.00 0.00 0.00 37 1008.5
20260504201557 70 190 3.5 7.8 0.00 0.00 0.00 35 1008.9
20260504200052 70 203 1.7 7.0 0.00 0.00 0.00 38 1009.1
20260504194554 69 231 3.5 9.6 0.00 0.00 0.00 37 1009.1
20260504193047 69 171 3.5 7.0 0.00 0.00 0.00 37 1009.3
20260504191606 67 162 3.5 8.7 0.00 0.00 0.00 41 1009.5
20260504190052 68 206 1.7 7.8 0.00 0.00 0.00 38 1009.5
20260504184549 69 163 3.5 6.1 0.00 0.00 0.00 40 1009.8
20260504183041 68 147 4.3 7.0 0.00 0.00 0.00 38 1009.9
20260504181540 68 139 5.2 9.6 0.00 0.00 0.00 40 1009.7
20260504180038 66 148 6.1 10.4 0.00 0.00 0.00 40 1009.9
20260504174540 65 168 2.6 9.6 0.00 0.00 0.00 42 1010.3
20260504173036 66 153 3.5 11.3 0.00 0.00 0.00 40 1010.2
20260504171537 66 139 3.5 7.8 0.00 0.00 0.00 40 1010.5
20260504081523 46 160 5.2 7.8 0.00 0.00 0.00 57 1013.7
20260504080120 46 165 4.3 6.1 0.00 0.00 0.00 56 1013.7
20260504044600 48 157 3.5 6.1 0.00 0.00 0.00 52 1014.0
20260504043059 48 164 2.6 4.3 0.00 0.00 0.00 52 1014.0
20260504041551 48 168 1.7 3.5 0.00 0.00 0.00 52 1014.0
20260504040111 49 171 3.5 5.2 0.00 0.00 0.00 50 1014.1